sat.trackr.live / text

‹ back to catalog

KUIPER-00125

NORAD 65954 · 2025-228H

PAYLOAD ACTIVE UNKNOWN

§ Identity

Operator
Country
US
Launch date
2025-10-14
Launch site
AFETR
Launch vehicle
Mass (kg)
RCS (m²)

External: N2YO · Heavens-Above · Gunter

§ Orbital elements

Epoch: 2026-09-20T04:52:02.008128Z

Period
97.30 min
Inclination
51.8982°
Eccentricity
0.0000977
Mean motion
14.79957712 rev/d
Perigee alt
628.8 km
Apogee alt
630.1 km
Semi-major
7,007.6 km
B*
3.0059e-4
RAAN
200.4671°
Arg perigee
77.5889°
Mean anomaly
282.5183°
Rev number
5,231

§ Raw data

KUIPER-001251 65954U 25228H   26263.20280102  .00002072  00000+0  30059-3 0  99922 65954  51.8982 200.4671 0000977  77.5889 282.5183 14.79957712 52313

JSON: /api/v1/satellites/65954 · /tle

For live sub-satellite position, see the globe view (requires WebGL).

§ Visibility from observer

Set your observer location to see the next 7 days of passes ≥ 10°. The values pass through the URL so the page stays shareable.

No JS? Fill the form by hand. The geolocation button needs JavaScript.